This is the latest recevied weather packets stored in our database for station/object WB3EGK. If no packets are shown the sender has not sent any weather packets the latest 10 day(s).
| Time | Temp. | Humidity | Pressure | Rain* | Wind** | Luminosity | Snow |
|---|---|---|---|---|---|---|---|
| 1778151004 | 2.78° C | 1% | 1010.2 hPa | 0 mm | - | 29 W/m² | - |
| 1778150701 | 2.78° C | 1% | 1010.2 hPa | 0 mm | - | 26 W/m² | - |
| 1778150396 | 2.22° C | 1% | 1010.3 hPa | 0 mm | - | 24 W/m² | - |
| 1778150093 | 2.22° C | 1% | 1010.2 hPa | 0 mm | - | 19 W/m² | - |
| 1778149790 | 2.22° C | 1% | 1009.8 hPa | 0 mm | - | 14 W/m² | - |
| 1778149487 | 2.22° C | 1% | 1010 hPa | 0 mm | - | 9 W/m² | - |
| 1778149183 | 2.22° C | 1% | 1009.9 hPa | 0 mm | - | 7 W/m² | - |
| 1778148878 | 2.22° C | 1% | 1009.9 hPa | 0 mm | - | 3 W/m² | - |
| 1778148575 | 2.22° C | 1% | 1009.9 hPa | 0 mm | - | 2 W/m² | - |
| 1778148273 | 2.22° C | 1% | 1009.8 hPa | 0 mm | - | 0 W/m² | - |
| 1778147971 | 1.67° C | 1% | 1010 hPa | 0 mm | - | 0 W/m² | - |
| 1778147668 | 2.22° C | 1% | 1009.9 hPa | 0 mm | - | 0 W/m² | - |
| 1778147365 | 2.22° C | 1% | 1009.9 hPa | 0 mm | - | 0 W/m² | - |
| 1778147061 | 2.22° C | 1% | 1010 hPa | 0 mm | - | 0 W/m² | - |
| 1778146758 | 2.22° C | 1% | 1009.8 hPa | 0 mm | - | 0 W/m² | - |
| 1778146456 | 2.22° C | 1% | 1009.8 hPa | 0 mm | - | 0 W/m² | - |
| 1778146154 | 2.22° C | 1% | 1009.8 hPa | 0 mm | - | 0 W/m² | - |
| 1778145850 | 2.22° C | 1% | 1009.9 hPa | 0 mm | - | 0 W/m² | - |
| 1778145547 | 2.22° C | 1% | 1010 hPa | 0 mm | - | 0 W/m² | - |
| 1778145243 | 2.22° C | 1% | 1010 hPa | 0 mm | - | 0 W/m² | - |
| 1778144939 | 2.22° C | 1% | 1010.1 hPa | 0 mm | - | 0 W/m² | - |
| 1778144635 | 2.22° C | 1% | 1010.4 hPa | 0 mm | - | 0 W/m² | - |
| 1778144332 | 2.22° C | 1% | 1010.1 hPa | 0 mm | - | 0 W/m² | - |
| 1778144029 | 2.22° C | 1% | 1010.1 hPa | 0 mm | - | 0 W/m² | - |
| 1778143726 | 2.22° C | 1% | 1010.2 hPa | 0 mm | - | 0 W/m² | - |
* Rain latest hour (hover to see other rain measurements)
** Current wind speed in m/s (hover to see current wind gust speed)